Sturgis, MI

6:15 AM EDT on June 18, 2018 (GMT -0400)
Kirsch Municipal

Weather History for KIRS - October, 2017

Change the Weather History Date:

Sunday, October 22, 2017

  Actual Average (KHAI) Record (KHAI)
Temperature  
Mean Temperature 66 °F -  
Max Temperature 74 °F 58 °F 82 °F (1953)
Min Temperature 58 °F 38 °F 25 °F (1967)
Cooling Degree Days 1    
Growing Degree Days 16 (Base 50)    
Moisture  
Dew Point 53 °F    
Average Humidity 63    
Maximum Humidity 71    
Minimum Humidity 56    
Precipitation  
Precipitation 0.00 in - - ()
Sea Level Pressure  
Sea Level Pressure 30.05 in    
Wind  
Wind Speed 11 mph (South)    
Max Wind Speed 20 mph    
Max Gust Speed 91 mph    
Visibility 10 miles    
Events      
Averages and records for this station are not official NWS values.
T = Trace of Precipitation, MM = Missing Value Source: NWS Daily Summary

Daily Weather History Graph

Daily Weather History Graph

Search for Another Location

Airport or City:

Astronomy

Oct. 22, 2017 Rise Set
Actual Time 8:02 AM EDT 6:49 PM EDT
Civil Twilight 7:34 AM EDT 7:17 PM EDT
Nautical Twilight 7:01 AM EDT 7:50 PM EDT
Astronomical Twilight 6:29 AM EDT 8:22 PM EDT
Moon 10:36 AM EDT (10/22) 8:55 PM EDT (10/22)
Length of Visible Light 11h 43m
Length of Day
10h 46m
Waxing Crescent, 8% of the Moon is Illuminated
Oct 22
Waxing Crescent
Oct 27
First Quarter
Nov 4
Full
Nov 10
Last Quarter
Nov 18
New

Hourly Weather History & Observations

Time (EDT) Temp. Dew Point Humidity Pressure Visibility Wind Dir Wind Speed Gust Speed Precip Events Conditions
12:14 AM 62.1 °F 46.8 °F 57% 30.11 in 10.0 mi South 9.2 mph - N/A   Clear
12:35 AM 62.4 °F 46.6 °F 56% 30.11 in 10.0 mi South 9.2 mph - N/A   Clear
12:54 AM 62.2 °F 46.6 °F 57% 30.11 in 10.0 mi South 9.2 mph - N/A   Clear
1:15 AM 61.9 °F 46.8 °F 58% 30.11 in 10.0 mi South 8.1 mph - N/A   Clear
1:35 AM 62.1 °F 46.8 °F 57% 30.12 in 10.0 mi South 10.4 mph 16.1 mph N/A   Clear
1:54 AM 61.9 °F 46.9 °F 58% 30.12 in 10.0 mi South 9.2 mph - N/A   Clear
2:15 AM 61.9 °F 46.9 °F 58% 30.12 in 10.0 mi South 9.2 mph - N/A   Mostly Cloudy
2:35 AM 61.3 °F 46.9 °F 59% 30.11 in 10.0 mi South 10.4 mph 16.1 mph N/A   Scattered Clouds
2:54 AM 61.0 °F 46.9 °F 60% 30.11 in 10.0 mi South 10.4 mph - N/A   Clear
3:15 AM 60.1 °F 47.3 °F 63% 30.11 in 10.0 mi South 8.1 mph - N/A   Clear
3:35 AM 60.1 °F 47.3 °F 63% 30.11 in 10.0 mi South 8.1 mph - N/A   Clear
3:54 AM 59.9 °F 47.5 °F 64% 30.10 in 10.0 mi South 8.1 mph - N/A   Clear
4:15 AM 59.9 °F 47.5 °F 64% 30.09 in 10.0 mi South 8.1 mph - N/A   Clear
4:34 AM 59.7 °F 47.3 °F 63% 30.09 in 10.0 mi South 8.1 mph - N/A   Clear
4:54 AM 59.9 °F 47.3 °F 63% 30.07 in 10.0 mi South 9.2 mph - N/A   Clear
5:15 AM 61.0 °F 47.1 °F 60% 30.07 in 10.0 mi South 10.4 mph - N/A   Clear
5:34 AM 60.6 °F 47.1 °F 61% 30.07 in 10.0 mi South 9.2 mph - N/A   Clear
5:54 AM 59.9 °F 47.3 °F 63% 30.07 in 10.0 mi SSE 12.7 mph - N/A   Clear
6:15 AM 59.7 °F 47.3 °F 63% 30.07 in 10.0 mi SSE 11.5 mph 17.3 mph N/A   Clear
6:34 AM 59.9 °F 47.3 °F 63% 30.07 in 10.0 mi South 9.2 mph 16.1 mph N/A   Clear
6:54 AM 59.9 °F 47.7 °F 64% 30.07 in 10.0 mi South 8.1 mph - N/A   Clear
7:15 AM 59.4 °F 48.2 °F 67% 30.07 in 10.0 mi South 8.1 mph - N/A   Clear
7:34 AM 58.8 °F 48.2 °F 68% 30.07 in 10.0 mi SSE 10.4 mph - N/A   Clear
7:55 AM 58.5 °F 48.6 °F 70% 30.08 in 10.0 mi South 9.2 mph - N/A   Scattered Clouds
8:15 AM 58.1 °F 48.7 °F 71% 30.08 in 10.0 mi SSE 11.5 mph - N/A   Clear
8:34 AM 58.3 °F 49.1 °F 71% 30.08 in 10.0 mi SSE 11.5 mph - N/A   Clear
8:55 AM 59.5 °F 49.6 °F 70% 30.09 in 10.0 mi South 12.7 mph 18.4 mph N/A   Clear
9:15 AM 60.4 °F 50.4 °F 69% 30.09 in 10.0 mi South 10.4 mph 17.3 mph N/A   Clear
9:34 AM 62.1 °F 51.4 °F 68% 30.09 in 10.0 mi South 13.8 mph 18.4 mph N/A   Clear
9:55 AM 63.7 °F 52.3 °F 67% 30.09 in 10.0 mi South 13.8 mph 17.3 mph N/A   Clear
10:15 AM 63.9 °F 53.4 °F 69% 30.09 in 10.0 mi South 15.0 mph 18.4 mph N/A   Clear
10:34 AM 64.8 °F 53.8 °F 68% 30.08 in 10.0 mi South 15.0 mph - N/A   Clear
10:55 AM 67.3 °F 55.2 °F 65% 30.07 in 10.0 mi South 18.4 mph 23.0 mph N/A   Clear
11:15 AM 66.7 °F 55.4 °F 67% 30.07 in 10.0 mi South 17.3 mph 24.2 mph N/A   Clear
11:34 AM 68.5 °F 55.9 °F 64% 30.07 in 10.0 mi South 12.7 mph - N/A   Clear
11:55 AM 70.9 °F 57.2 °F 62% 30.07 in 10.0 mi South 12.7 mph 23.0 mph N/A   Scattered Clouds
12:15 PM 70.7 °F 56.8 °F 61% 30.07 in 10.0 mi SSW 15.0 mph - N/A   Scattered Clouds
12:34 PM 70.9 °F 57.0 °F 61% 30.06 in 10.0 mi South 17.3 mph 23.0 mph N/A   Scattered Clouds
12:55 PM 72.0 °F 57.7 °F 61% 30.06 in 10.0 mi South 17.3 mph 21.9 mph N/A   Mostly Cloudy
1:15 PM 72.5 °F 58.1 °F 60% 30.05 in 10.0 mi South 12.7 mph 17.3 mph N/A   Overcast
1:34 PM 72.7 °F 58.1 °F 60% 30.04 in 10.0 mi SSW 19.6 mph 24.2 mph N/A   Mostly Cloudy
1:55 PM 73.2 °F 58.1 °F 59% 30.03 in 10.0 mi SSW 16.1 mph 29.9 mph N/A   Mostly Cloudy
2:14 PM 72.5 °F 57.7 °F 60% 30.02 in 10.0 mi SSW 15.0 mph 23.0 mph N/A   Mostly Cloudy
2:35 PM 73.4 °F 58.1 °F 59% 30.01 in 10.0 mi South 12.7 mph 24.2 mph N/A   Mostly Cloudy
2:55 PM 73.4 °F 58.1 °F 59% 30.00 in 10.0 mi South 17.3 mph 21.9 mph N/A   Mostly Cloudy
3:14 PM 73.8 °F 58.6 °F 59% 29.99 in 10.0 mi South 19.6 mph 24.2 mph N/A   Mostly Cloudy
3:35 PM 74.7 °F 59.0 °F 58% 29.99 in 10.0 mi South 18.4 mph 24.2 mph N/A   Scattered Clouds
3:55 PM 74.3 °F 58.6 °F 58% 29.99 in 10.0 mi South 15.0 mph 19.6 mph N/A   Scattered Clouds
4:14 PM 74.1 °F 58.5 °F 58% 29.99 in 10.0 mi South 15.0 mph 19.6 mph N/A   Scattered Clouds
4:34 PM 73.8 °F 58.5 °F 59% 30.00 in 10.0 mi South 13.8 mph 19.6 mph N/A   Scattered Clouds
4:55 PM 73.0 °F 59.2 °F 62% 29.99 in 10.0 mi SSW 9.2 mph 16.1 mph N/A   Overcast
5:14 PM 73.0 °F 58.8 °F 61% 29.99 in 10.0 mi SSW 9.2 mph - N/A   Overcast
5:35 PM 72.9 °F 59.0 °F 62% 29.99 in 10.0 mi South 6.9 mph - N/A   Overcast
5:55 PM 72.9 °F 59.0 °F 62% 29.99 in 10.0 mi South 9.2 mph - N/A   Overcast
6:14 PM 73.0 °F 58.5 °F 60% 29.99 in 10.0 mi South 11.5 mph - N/A   Overcast
6:35 PM 72.9 °F 58.1 °F 60% 29.98 in 10.0 mi South 11.5 mph - N/A   Overcast
6:55 PM 72.3 °F 57.9 °F 60% 29.98 in 10.0 mi South 9.2 mph - N/A   Overcast
7:14 PM 71.8 °F 57.6 °F 61% 29.98 in 10.0 mi South 9.2 mph - N/A   Overcast
7:35 PM 72.0 °F 57.6 °F 60% 29.98 in 10.0 mi ESE 6.9 mph 16.1 mph N/A   Overcast
7:55 PM 71.2 °F 57.7 °F 62% 29.99 in 10.0 mi South 9.2 mph 38.0 mph N/A   Overcast
8:35 PM 70.7 °F 58.1 °F 64% 29.99 in 10.0 mi South 6.9 mph - N/A   Overcast
8:55 PM 70.5 °F 57.7 °F 64% 29.99 in 10.0 mi South 10.4 mph - N/A   Overcast
9:14 PM 70.7 °F 57.4 °F 63% 29.99 in 10.0 mi South 10.4 mph 16.1 mph N/A   Overcast
9:35 PM 70.0 °F 57.2 °F 64% 29.99 in 10.0 mi South 10.4 mph - N/A   Overcast
9:55 PM 70.0 °F 56.7 °F 63% 29.99 in 10.0 mi South 11.5 mph 16.1 mph N/A   Overcast
10:14 PM 69.6 °F 56.5 °F 63% 29.99 in 10.0 mi South 10.4 mph - N/A   Overcast
10:35 PM 68.9 °F 56.5 °F 65% 29.99 in 10.0 mi South 9.2 mph - N/A   Overcast
10:55 PM 68.4 °F 56.5 °F 66% 29.99 in 10.0 mi SW 6.9 mph - N/A   Overcast
11:14 PM 68.0 °F 56.3 °F 66% 29.99 in 10.0 mi SSW 6.9 mph 90.9 mph N/A   Overcast
11:35 PM 67.3 °F 55.9 °F 67% 29.98 in 10.0 mi SSW 6.9 mph - N/A   Overcast
11:55 PM 67.3 °F 55.4 °F 66% 29.98 in 10.0 mi SSW 8.1 mph - N/A   Overcast